SL-16 DEB, 43354

Orbit data source: Space-Track

SL-16 DEB, 43354 is space debris in LEO originally from a launch on Wed, 04 Sep 1996 UTC launched from the Tyuratam Missile And Space Complex (TTMTR). Debris objects in space refer to the collection of defunct objects orbiting the Earth. Examples of debris include non-operational satellites, rocket bodies, and fragments generated from explosions, collisions, or faulty payload assembly.

Loading next visibility...
Identifier
43354, 1996-051P
Orbit
LEO
Country
Flag of CISCIS
Related business
Manufacturer
Unknown
Mission
Spacecraft
Bus & Motor
Unknown
Mass
Unknown
Launch date (UTC)
1996-09-04 (29 years ago)
Launch vehicle
Unknown
Launch site
Tyuratam Missile And Space Complex (TTMTR)
Object type
Payload
Rocket body
Debris
Shape & HBR
Unknown
Radar Cross Section
Small (<0.1 m²)

Expand to show TLE details & history
Last TLE update: 2 days ago

TLE from 2 days ago
0 SL-16 DEB
1 43354U 96051P   25259.45816866  .00000263  00000-0  15587-3 0  9997
2 43354  71.1918 157.4846 0092118 164.9502 195.4397 14.14026009609719
Epoch: 2025-09-16T10:59Z
TLE epoch observation values (Epoch: 2025-09-16T10:59:45.772Z)
Latitude
-0.00001°
Longitude
-3.1043°
Altitude
912.234 km
Speed
7.363 km/s
True Right ascension
10h 29m 56s
True Declination
0° 00' 00"
Sunlit
Object was in daylight at epoch
Visualization orbit readout
Latitude
Unknown
Longitude
Unknown
Altitude
Unknown
Speed
Unknown
Apparent Right ascension
Unknown
Apparent Declination
Unknown
Sunlit
N/A
Visualization observer readout
Local Sidereal Time
14:44:33
Azimuth
Unknown
Elevation
Unknown
Doppler factor
Unknown
Orbital elements
Apogee altitude
910.059 km
Perigee altitude
777.01 km
Semi-major axis
7,221.671 km
Eccentricity
0.00921
Inclination
71.1918°
RAAN
157.4846°
Arg. of periapsis
164.9502°
True anomaly
195.16176°
Mean anomaly
195.4397°
Eccentric anomaly
195.30042°
Mean motion
3.53661 °/min
Orbital period
101.79 mins
BSTAR
0.00015587
Loading maneuver chart data...
Computing Atmospheric mass density...
Loading historical data...
Loading historical data...
Loading historical data...
Loading historical data...
Loading historical data...
Loading historical data...
Loading historical data...

Documentation

Showing up to 5 results
|